To NAV CANADA Home Page Login to a new session Search on AWWS site Feedback and Comments Disclaimer Vers la page française équivalente Tips FAQ What's new on the site To the Forecasts and Observations / NOTAM section To "File a Flight Plan" website Publications and other links Update of the User's profile FIC Telephone Numbers My Weather Data Folder Route Weather Data Regional Weather Data Local Weather Data To the Forecasts and Observations / NOTAM section
Request Generated 08/30/2016 at 14:53:52 UTC . Weather information available at that time is displayed.

METAR/TAF

UMIUJAQ/QC    

METAR CYMU 301400Z 09010KT 15SM SCT055 BKN080 15/09 A2992 RMK SC4AC1
SLP135=
METAR CYMU 301300Z 08013KT 15SM BKN055 BKN080 14/08 A2993 RMK SC6AC1
SLP140=
LWIS CYMU 301200Z AUTO 08015KT 12/07 A2994=

CYMU - No TAF is issued for this station

Your time UTC time
Weather data provided by Environment Canada and NAV CANADA